Presure
136 132 176 172 152 196 212 210 202 203 200 200 199 188 191 211 164 224 206 173 181 186 185 183 180 180 175 174 178 178 181 181 188 183 182 183 184 174 176 180 103 90 175
136 156 157 154 200 142 204 206 213 200 205 204 209 206 182 169 213 224 222 216 170 173 199 177 176 178 176 131 165 168 176 178 165 172 171 148 149 102 172 140 83 164 128
140 133 163 145 204 177 150 202 126 210 179 207 202 204 206 202 207 182 209 212 173 193 168 170 166 167 171 175 173 126 168 87 131 171 92 94 175 131 170 170 171 170 171
182 200 209 167 171 149 203 192 206 209 204 194 200 192 198 197 211 201 207 198 155 169 175 152 203 174 186 174 180 175 173 178 136 151 166 166 162 161 165 165 169 170 167
197 221 213 206 204 200 159 224 186 157 175 195 193 193 191 204 194 190 195 208 204 202 186 216 222 168 195 149 139 188 188 93 183 181 180 171 164 187 189 169 168 173 179
210 237 232 194 211 191 191 183 182 169 187 213 226 197 217 190 202 191 188 191 190 224 179 204 210 211 210 149 195 181 183 184 172 182 175 179 168 184 197 172 172 179 180
224 196 198 195 200 199 198 194 168 190 186 176 176 181 192 192 178 190 202 203 187 183 183 182 189 206 217 215 211 211 213 214 216 204 200 201 201 196 179 180 180 180 188
218 206 198 193 200 205 212 204 213 210 205 192 189 185 198 204 188 216 216 199 194 169 216 197 210 202 193 211 190 208 183 205 226 210 209 217 212 207 210 213 216 208 205
220 210 209 202 207 191 203 195 198 199 202 201 203 200 168 197 199 199 200 173 171 172 190 145 204 214 185 186 169 181 182 189 179 180 184 199 194 210 191 198 223 190 178
224 218 215 210 207 202 203 190 197 191 187 192 199 205 203 193 192 186 181 182 188 205 166 194 191 178 179 206 182 192 218 199 189 182 186 186 179 211 188 214 183 187 203
236 229 224 215 210 201 206 206 205 203 202 197 187 189 185 200 185 190 186 195 197 186 170 181 201 194 200 179 178 181 225 207 194 177 194 188 197 189 195 216 199 176 163
217 211 232 228 223 218 204 205 209 205 202 193 203 203 206 193 194 198 174 174 185 154 193 187 164 186 183 177 192 213 198 190 200 170 183 217 186 180 174 176 182 207 185
246 227 215 196 226 223 213 211 210 191 205 204 198 187 181 187 197 198 209 169 186 194 162 188 191 184 195 183 169 186 189 208 174 161 200 204 197 188 191 216 203 191 215
280 327 245 234 213 203 217 231 215 207 209 207 191 191 192 195 188 193 181 182 186 166 182 167 180 182 171 184 181 197 186 174 197 178 198 202 196 185 216 193 191 219 198
242 258 264 286 273 235 224 205 209 194 193 206 203 199 196 193 190 200 196 194 196 182 213 184 179 179 187 182 186 188 195 201 207 195 200 198 227 213 201 203 217 204 219
245 220 228 250 257 265 279 246 232 211 204 204 205 200 199 201 204 195 185 193 182 190 202 183 184 183 192 187 210 196 191 202 212 192 186 201 223 194 202 214 213 205 205
236 229 246 213 221 241 255 256 269 283 264 236 218 208 204 204 203 201 203 201 197 194 186 190 194 196 188 189 194 193 220 196 202 195 203 186 204 194 202 199 194 209 202
246 240 232 235 250 213 214 224 244 248 258 272 293 283 234 225 216 210 204 202 199 200 199 196 195 190 194 196 192 190 193 195 198 201 200 201 219 202 206 208 197 205 189
233 233 234 246 252 237 251 260 242 213 217 230 247 264 276 306 361 230 232 217 213 209 204 202 196 195 195 198 195 200 193 201 195 200 203 193 199 214 209 213 207 217 206
229 226 226 234 236 247 250 236 243 258 247 218 221 222 233 252 268 296 371 287 231 225 218 215 210 207 205 206 206 206 213 205 212 213 212 202 189 199 201 209 222 237 235
250 251 242 247 256 263 262 251 235 241 245 249 231 216 223 212 229 245 258 287 345 345 268 223 221 214 214 217 210 216 216 215 218 206 207 199 218 203 221 228 250 257 241
256 250 241 247 268 250 264 257 241 253 250 242 241 242 251 245 236 228 223 237 252 268 291 316 312 285 231 225 230 231 232 230 233 235 233 241 242 241 221 252 234 221 249
266 247 248 244 251 258 252 250 253 256 250 239 248 242 241 239 250 253 235 227 219 217 238 254 268 275 277 278 271 267 265 260 250 265 239 240 250 276 259 266 257 258 239
280 269 262 261 263 264 257 259 261 254 249 247 252 246 236 239 234 232 247 250 239 229 230 228 215 228 230 248 254 256 258 260 260 258 257 256 256 251 243 236 237 234 238
281 277 257 267 260 264 270 272 262 250 256 245 244 248 245 241 231 237 235 229 242 247 246 240 234 229 228 227 227 226 236 227 222 225 229 235 239 236 230 234 243 253 252
332 326 304 135 282 282 274 273 265 261 268 249 261 252 243 243 246 240 237 241 233 227 226 224 225 227 232 236 239 240 241 238 235 230 224 225 231 244 249 248 248 256 258
Wind_Speed
46 42 68 61 49 71 67 67 69 67 66 68 68 67 70 61 64 63 68 66 67 66 65 64 62 61 62 64 62 63 63 62 59 60 61 61 61 66 68 67 49 55 71
49 56 61 60 75 48 71 68 66 68 66 66 60 61 66 67 61 59 60 63 68 69 70 67 64 60 61 46 68 69 66 64 61 65 65 61 58 46 71 66 47 77 66
57 53 70 60 67 72 57 71 42 64 63 58 61 59 59 63 61 63 58 60 62 67 71 69 64 64 63 64 66 51 71 38 53 68 49 54 67 59 73 76 79 81 82
68 81 77 77 70 58 77 72 69 67 65 67 64 71 67 65 58 62 60 62 72 69 69 69 68 72 74 68 68 66 71 69 61 66 72 73 76 80 80 82 84 84 86
77 78 76 80 77 77 63 72 73 63 66 72 72 71 70 63 63 68 66 61 65 68 70 58 60 73 75 67 59 75 76 53 75 75 73 77 80 76 76 84 87 88 87
68 82 84 79 75 79 77 70 73 63 69 72 70 67 70 69 67 71 72 68 69 61 54 65 64 64 67 58 76 77 79 80 78 80 78 78 81 80 77 87 91 91 90
80 79 82 82 84 84 84 82 70 73 71 67 64 69 70 74 73 71 72 69 71 68 68 69 71 68 68 67 67 71 74 76 76 82 82 82 82 84 85 87 90 94 93
85 87 83 79 85 88 87 88 79 77 78 76 71 74 76 76 72 70 73 73 72 73 70 72 72 71 70 72 70 70 79 73 77 74 79 79 80 82 85 87 88 90 93
94 91 94 90 93 78 90 77 82 81 81 84 83 81 71 77 81 75 71 69 73 72 76 79 82 82 77 72 78 76 85 84 85 83 83 82 83 82 85 88 86 91 95
97 91 96 96 97 98 95 77 85 80 78 82 85 87 84 78 79 74 75 76 78 80 77 79 82 78 80 80 77 82 87 87 84 82 83 84 89 88 91 88 94 94 91
96 95 97 99 101 100 101 98 94 92 92 87 81 78 74 89 73 75 69 79 84 75 76 74 82 80 82 81 91 87 88 93 85 88 87 88 92 91 93 101 97 100 98
78 77 90 95 96 100 96 97 97 94 95 88 96 96 93 90 91 91 72 73 81 87 87 81 88 80 77 86 92 87 98 89 87 92 88 102 98 100 102 102 102 109 107
92 86 82 80 94 96 97 100 101 86 97 97 96 88 79 85 92 92 95 84 85 89 87 85 92 86 98 95 97 93 101 99 97 98 103 104 101 104 101 113 107 109 116
21 24 96 91 87 87 93 100 101 100 98 95 92 94 92 97 82 90 82 84 88 89 90 92 89 89 98 100 103 109 103 98 109 102 103 110 113 107 118 111 111 116 116
32 32 33 42 79 97 95 93 95 94 94 100 99 97 98 99 94 98 93 95 96 90 97 96 94 96 103 106 112 108 111 114 117 113 114 114 118 123 112 120 129 121 141
36 43 44 45 47 49 58 111 103 100 100 101 103 101 102 103 104 98 91 94 92 100 95 93 99 102 109 112 118 113 107 117 115 114 103 123 129 107 120 136 139 130 131
43 45 44 54 55 55 54 55 53 55 101 115 109 107 106 107 107 107 109 105 101 100 104 110 113 114 108 114 121 120 112 125 122 125 133 107 135 123 134 125 119 144 127
43 45 51 53 50 64 64 62 61 62 59 55 52 80 121 116 115 114 112 111 111 112 110 111 110 113 119 120 119 123 128 127 130 128 134 136 138 134 133 143 123 142 95
51 49 50 51 52 58 55 55 63 71 70 66 64 56 53 47 60 120 124 118 116 119 121 119 114 122 121 123 125 133 125 137 131 138 139 120 128 142 137 143 142 160 128
58 57 54 56 56 58 58 63 59 56 65 72 70 70 68 60 54 48 46 92 125 123 131 127 125 127 131 134 136 135 142 141 145 146 143 131 103 118 121 145 163 164 154
72 70 65 63 64 64 63 62 66 65 62 62 71 75 73 75 71 65 58 47 43 50 103 131 132 128 133 140 130 140 144 143 145 135 133 115 152 109 158 153 153 129 140
78 76 71 70 70 67 67 66 66 66 66 65 65 67 66 70 74 75 75 71 62 53 47 49 56 87 141 136 140 141 143 145 156 157 160 156 152 150 112 130 128 128 124
86 78 78 75 77 78 75 68 72 72 69 68 69 68 69 69 67 68 77 78 79 79 73 66 61 58 57 58 70 78 88 111 131 94 146 149 132 99 110 110 116 116 116
88 89 87 84 84 85 83 80 77 76 74 73 73 73 73 73 74 74 72 74 81 83 83 82 81 79 79 76 77 80 82 83 86 89 94 97 101 104 107 111 112 111 116
96 94 85 89 86 90 90 88 85 80 81 78 77 78 78 76 77 78 79 80 79 79 81 82 83 85 86 89 90 90 88 90 91 93 96 100 103 105 106 109 114 119 120
94 94 93 40 95 92 91 90 87 87 85 82 80 82 83 82 81 81 81 82 86 86 85 84 85 85 88 90 89 90 90 90 91 93 96 100 104 109 112 113 117 119 118
Wind_Direction
255 252 237 241 248 234 234 235 238 240 241 243 246 249 251 254 254 258 257 262 265 265 265 264 264 267 268 272 275 275 274 276 278 279 281 281 281 284 284 283 285 287 286
251 244 251 245 234 245 234 236 237 239 240 243 246 248 251 251 257 259 260 262 262 264 265 265 265 265 267 269 273 274 274 276 277 277 278 281 280 280 284 283 284 281 283
247 252 240 256 240 238 247 236 244 239 245 240 244 246 249 251 255 257 260 263 263 265 266 268 269 268 266 265 269 278 276 283 277 278 285 285 281 281 279 280 281 282 284
244 231 227 245 242 249 238 238 238 238 239 241 243 247 249 252 256 260 261 261 261 265 268 268 267 270 271 271 272 271 273 274 277 278 277 278 277 277 279 281 282 284 286
243 228 226 218 240 238 249 235 243 251 251 244 246 250 253 253 257 258 259 263 264 265 267 269 268 271 270 275 275 276 276 283 277 276 275 274 279 279 282 280 281 282 283
235 215 217 239 235 250 252 255 247 252 253 243 245 253 253 255 256 257 260 261 264 269 267 267 268 270 271 272 273 275 276 277 274 277 276 278 276 277 283 279 280 282 284
225 246 244 247 245 248 248 252 249 247 250 249 257 258 256 258 256 258 261 263 267 266 267 268 269 273 275 275 275 277 278 281 283 279 281 283 283 283 279 280 281 282 284
230 242 247 251 249 247 247 251 246 251 253 257 255 256 257 258 265 260 257 265 266 262 268 267 273 272 271 277 273 279 275 281 286 283 284 285 284 285 286 287 288 285 286
238 241 243 246 245 255 252 255 257 256 256 257 258 259 255 262 263 266 264 265 266 267 272 268 274 275 271 271 274 273 274 275 274 276 280 283 284 288 284 286 291 284 287
241 241 241 243 244 250 253 259 257 258 261 261 261 261 265 266 267 266 263 268 270 271 264 271 274 271 271 278 272 277 284 278 276 278 282 283 281 283 282 293 283 288 290
236 238 238 239 241 247 250 252 254 255 257 258 264 265 266 265 267 270 269 268 270 272 271 273 277 275 276 273 274 275 282 281 280 276 285 282 289 278 285 295 290 284 289
238 240 240 241 242 245 251 255 256 256 258 262 261 261 261 264 266 268 262 262 274 264 278 277 268 277 273 272 280 280 286 275 284 277 277 297 284 280 281 282 283 296 289
239 240 240 241 244 245 247 250 254 250 252 254 258 259 255 262 267 268 271 259 269 274 261 273 281 277 284 278 269 273 284 283 274 282 292 294 289 285 287 297 291 289 296
246 254 243 243 242 244 246 247 249 253 254 253 254 257 261 264 260 266 262 263 268 259 272 262 272 275 272 278 273 285 279 279 289 278 288 293 289 286 294 289 287 296 294
251 242 244 248 247 246 245 245 246 251 253 254 254 255 256 258 261 264 264 268 269 268 270 271 271 271 278 277 280 283 286 288 288 287 290 289 290 291 289 294 299 298 299
255 245 252 248 243 248 252 249 249 248 250 252 253 256 258 260 261 262 263 263 266 269 269 271 273 273 278 277 281 280 283 287 285 286 285 292 292 289 294 294 295 295 295
261 254 255 248 252 253 249 250 252 256 251 251 252 254 255 256 257 260 263 262 262 262 265 268 271 271 274 277 280 282 279 285 284 288 288 289 292 293 292 293 293 292 296
271 262 259 255 259 252 253 253 254 255 257 258 263 257 254 254 255 256 258 260 262 264 264 264 267 271 271 272 276 280 280 281 282 282 283 285 285 286 289 290 294 294 297
275 265 262 266 267 257 259 259 256 254 256 257 260 262 266 269 259 256 256 256 258 259 263 262 265 267 270 272 274 274 277 278 280 281 281 285 287 287 288 288 292 291 297
276 271 265 266 262 264 264 256 253 259 258 254 255 257 260 263 269 270 262 257 256 255 258 260 263 264 266 266 268 272 273 273 274 273 278 282 290 286 291 288 291 290 289
285 281 277 275 275 273 269 266 258 257 255 258 257 256 258 259 261 265 268 271 261 259 256 259 261 263 264 265 270 270 272 274 274 277 279 283 278 291 287 286 286 286 289
282 281 278 278 271 272 267 264 262 260 258 255 256 259 260 259 260 261 262 266 267 265 264 263 264 262 260 262 264 266 267 269 270 272 272 275 279 280 283 284 286 291 288
279 279 277 276 276 268 270 266 263 263 261 260 257 258 259 260 261 259 261 264 264 265 267 263 262 264 264 264 262 263 265 268 271 272 271 276 281 285 282 284 288 289 294
267 272 272 272 268 266 269 267 264 261 261 260 257 256 257 258 259 261 262 259 259 264 266 268 269 271 271 266 263 264 266 269 271 272 274 277 280 283 286 288 292 298 299
269 269 273 269 267 264 260 259 262 263 261 260 259 257 257 256 258 260 260 261 262 262 262 263 266 267 268 269 271 273 274 277 280 281 282 283 284 288 292 295 296 296 299
267 264 261 258 260 260 258 258 258 259 257 258 253 253 257 258 257 256 256 257 260 264 266 268 269 269 268 269 270 273 275 278 280 283 286 288 290 290 291 295 297 299 302